Location: Casco Millpond
(44.5581°N, 87.6111°W)
Time: 22:18:06
(UTC+00:00)

Cosmos 1862 Rocket - Pass Details

Date: 16 January 2026
Orbit: 596 x 627 km, 82.5° (Epoch: 10 February)

Event Time Altitude Azimuth Distance (km) Brightness Sun altitude
Rises 11:58:09 0° 352° (N) 2,878 6.8 -14.8°
Reaches altitude 10° 12:00:24 10° 354° (N) 1,964 5.9 -14.5°
Maximum altitude 12:04:44 80° 81° (E) 617 3.6 -13.7°
Drops below altitude 10° 12:09:01 10° 169° (S) 1,933 6.5 -13.0°
Sets 12:11:12 0° 170° (S) 2,828 7.3 -12.6°
